Preview of NWS' New Version of Forecast
This preview is not operational and should not be used for support decisions.

Regional Weather Roundup (RWR)

Issued by National Weather Service (NWS)

                            
000
ASCA42 TJSJ 240410
RWRPR 
PUERTO RICO/U.S. VIRGIN ISLANDS HOURLY WEATHER ROUNDUP
NATIONAL WEATHER SERVICE SAN JUAN PR
1200 AM AST SUN MAR 24 2019

PRZ001>002-007>008-010-240500-
PUERTO RICO
  
CITY           SKY/WX    TMP DP  RH WIND       PRES   REMARKS
SAN JUAN LMM   PTCLDY    79  70  73 CALM      30.09F                  
CEIBA          CLEAR     79  70  73 E6        30.10F                  
$$

VIZ001>002-240500-
U.S. VIRGIN ISLANDS
  
CITY           SKY/WX    TMP DP  RH WIND       PRES   REMARKS
CHARLOTTE AMA  PTCLDY    79  70  73 E10       30.08F                  
$$

HOURLY WEATHER ROUNDUP FOR THE NEWS MEDIA
  
CITY           SKY/WX    TMP DP  RH WIND       PRES   REMARKS
ORLANDO        FAIR      60  54  80 NE7       30.25S                  
NEW YORK       FAIR      41  12  30 NW20G31   30.14R                  
NEWARK         FAIR      41   9  26 NW10      30.15R                  
CHICAGO        CLOUDY    41  27  57 SE6       30.19F                  
HARTFORD       FAIR      33  17  51 NW9G21    29.98R WCI  25          
BOSTON         FAIR      37  14  38 W20G31    29.96R WCI  27          
DALLAS         MOCLDY    68  58  70 S12       30.01R                  
PHILADELPHIA   FAIR      45  12  26 W9        30.19R                  
LOS ANGELES    PTCLDY    58  53  84 W12       30.14R                  
WASHINGTON DC  FAIR      39  19  44 VRB6      30.26S WCI  35